Time,TemperatureF,DewpointF,PressureIn,WindDirection,WindDirectionDegrees,WindSpeedMPH,WindSpeedGustMPH,Humidity,HourlyPrecipIn,Conditions,Clouds,dailyrainin,SoftwareType,DateUTC
2013-06-26 00:01:00,65.8,44.4,30.08,West,259,0.0,0.0,46,0.00,-RA,OVC,0.00,WeatherDisplay:10.37,2013-06-26 06:01:00,
2013-06-26 00:06:00,65.7,44.9,30.08,West,259,0.0,0.0,47,0.00,-RA,OVC,0.00,WeatherDisplay:10.37,2013-06-26 06:06:00,
2013-06-26 00:11:00,65.7,44.9,30.08,West,259,0.0,0.0,47,0.00,-RA,OVC,0.00,WeatherDisplay:10.37,2013-06-26 06:11:00,
2013-06-26 00:16:00,65.8,45.6,30.08,West,259,0.0,0.0,48,0.00,-RA,OVC,0.00,WeatherDisplay:10.37,2013-06-26 06:16:00,
2013-06-26 00:21:00,65.9,46.7,30.08,West,259,0.0,0.0,50,0.00,-RA,OVC,0.00,WeatherDisplay:10.37,2013-06-26 06:21:00,
2013-06-26 00:26:00,66.0,46.8,30.08,West,259,0.0,0.0,50,0.00,-RA,OVC,0.00,WeatherDisplay:10.37,2013-06-26 06:26:00,
2013-06-26 00:31:00,66.0,46.8,30.08,West,259,0.0,0.0,50,0.00,-RA,OVC,0.00,WeatherDisplay:10.37,2013-06-26 06:31:00,
2013-06-26 00:36:00,65.9,46.7,30.08,West,259,0.0,0.0,50,0.00,-RA,OVC,0.00,WeatherDisplay:10.37,2013-06-26 06:36:00,
2013-06-26 00:41:00,65.7,47.1,30.08,West,259,0.0,0.0,51,0.00,-RA,OVC,0.00,WeatherDisplay:10.37,2013-06-26 06:41:00,
2013-06-26 00:46:00,65.5,47.4,30.08,West,259,0.0,0.0,52,0.00,-RA,OVC,0.00,WeatherDisplay:10.37,2013-06-26 06:46:00,
2013-06-26 00:51:00,65.3,47.7,30.08,West,259,0.0,0.0,53,0.00,-RA,OVC,0.00,WeatherDisplay:10.37,2013-06-26 06:51:00,
2013-06-26 00:56:00,65.0,46.9,30.08,West,259,0.0,0.0,52,0.00,-RA,OVC,0.00,WeatherDisplay:10.37,2013-06-26 06:56:00,
2013-06-26 01:01:00,64.8,46.2,30.08,West,259,0.0,0.0,51,0.00,-RA,OVC,0.00,WeatherDisplay:10.37,2013-06-26 07:01:00,
2013-06-26 01:06:00,64.7,46.1,30.08,West,259,0.0,0.0,51,0.00,-RA,OVC,0.00,WeatherDisplay:10.37,2013-06-26 07:06:00,
2013-06-26 01:11:00,64.5,45.4,30.08,West,259,0.0,0.0,50,0.00,-RA,OVC,0.00,WeatherDisplay:10.37,2013-06-26 07:11:00,
2013-06-26 01:16:00,64.3,45.8,30.08,West,259,0.0,0.0,51,0.00,-RA,OVC,0.00,WeatherDisplay:10.37,2013-06-26 07:16:00,
2013-06-26 01:21:00,64.0,45.5,30.08,West,259,0.0,0.0,51,0.00,-RA,OVC,0.00,WeatherDisplay:10.37,2013-06-26 07:21:00,
2013-06-26 01:26:00,63.7,45.7,30.08,West,259,0.0,0.0,52,0.00,-RA,OVC,0.00,WeatherDisplay:10.37,2013-06-26 07:26:00,
2013-06-26 01:31:00,63.4,46.0,30.08,West,259,0.0,0.0,53,0.00,-RA,OVC,0.00,WeatherDisplay:10.37,2013-06-26 07:31:00,
2013-06-26 01:36:00,63.2,46.3,30.08,West,259,0.0,0.0,54,0.00,-RA,OVC,0.00,WeatherDisplay:10.37,2013-06-26 07:36:00,
2013-06-26 01:41:00,63.0,46.1,30.08,West,259,0.0,0.0,54,0.00,-RA,OVC,0.00,WeatherDisplay:10.37,2013-06-26 07:41:00,
2013-06-26 01:46:00,62.9,46.0,30.08,West,259,0.0,0.0,54,0.00,-RA,OVC,0.00,WeatherDisplay:10.37,2013-06-26 07:46:00,
2013-06-26 01:51:00,62.7,45.8,30.08,West,259,0.0,0.0,54,0.00,-RA,OVC,0.00,WeatherDisplay:10.37,2013-06-26 07:51:00,
2013-06-26 01:56:00,62.6,45.7,30.08,West,259,0.0,0.0,54,0.00,-RA,OVC,0.00,WeatherDisplay:10.37,2013-06-26 07:56:00,
2013-06-26 02:01:00,62.5,45.6,30.08,West,259,0.0,0.0,54,0.00,-RA,OVC,0.00,WeatherDisplay:10.37,2013-06-26 08:01:00,
2013-06-26 02:06:00,62.3,45.9,30.08,West,259,0.0,0.0,55,0.00,-RA,OVC,0.00,WeatherDisplay:10.37,2013-06-26 08:06:00,
2013-06-26 02:11:00,62.0,45.6,30.08,West,259,0.0,0.0,55,0.00,-RA,OVC,0.00,WeatherDisplay:10.37,2013-06-26 08:11:00,
2013-06-26 02:16:00,61.8,45.9,30.08,West,259,0.0,0.0,56,0.00,-RA,OVC,0.00,WeatherDisplay:10.37,2013-06-26 08:16:00,
2013-06-26 02:21:00,61.5,45.7,30.08,West,259,0.0,0.0,56,0.00,-RA,OVC,0.00,WeatherDisplay:10.37,2013-06-26 08:21:00,
2013-06-26 02:26:00,61.3,45.9,30.08,West,259,0.0,0.0,57,0.00,-RA,OVC,0.00,WeatherDisplay:10.37,2013-06-26 08:26:00,
2013-06-26 02:31:00,61.1,45.7,30.08,West,259,0.0,0.0,57,0.00,-RA,OVC,0.00,WeatherDisplay:10.37,2013-06-26 08:31:00,
2013-06-26 02:36:00,60.9,46.0,30.08,West,259,0.0,0.0,58,0.00,-RA,OVC,0.00,WeatherDisplay:10.37,2013-06-26 08:36:00,
2013-06-26 02:41:00,60.8,45.9,30.08,West,259,0.0,0.0,58,0.00,-RA,OVC,0.00,WeatherDisplay:10.37,2013-06-26 08:41:00,
2013-06-26 02:46:00,60.6,45.3,30.08,West,259,0.0,0.0,57,0.00,-RA,OVC,0.00,WeatherDisplay:10.37,2013-06-26 08:46:00,
2013-06-26 02:51:00,60.5,45.2,30.08,West,259,0.0,0.0,57,0.00,-RA,OVC,0.00,WeatherDisplay:10.37,2013-06-26 08:51:00,
2013-06-26 02:56:00,60.5,45.2,30.08,West,259,0.0,0.0,57,0.00,-RA,OVC,0.00,WeatherDisplay:10.37,2013-06-26 08:56:00,
2013-06-26 03:01:00,60.5,45.6,30.08,West,259,0.0,0.0,58,0.00,-RA,OVC,0.00,WeatherDisplay:10.37,2013-06-26 09:01:00,
2013-06-26 03:06:00,60.4,46.0,30.08,West,259,0.0,0.0,59,0.00,-RA,OVC,0.00,WeatherDisplay:10.37,2013-06-26 09:06:00,
2013-06-26 03:11:00,60.2,46.3,30.08,West,259,0.0,0.0,60,0.00,-RA,OVC,0.00,WeatherDisplay:10.37,2013-06-26 09:11:00,
2013-06-26 03:16:00,60.0,46.1,30.08,West,259,0.0,0.0,60,0.00,-RA,OVC,0.00,WeatherDisplay:10.37,2013-06-26 09:16:00,
2013-06-26 03:21:00,59.8,46.3,30.08,West,259,0.0,0.0,61,0.00,-RA,OVC,0.00,WeatherDisplay:10.37,2013-06-26 09:21:00,
2013-06-26 03:26:00,59.6,46.1,30.08,West,259,0.0,0.0,61,0.00,-RA,OVC,0.00,WeatherDisplay:10.37,2013-06-26 09:26:00,
2013-06-26 03:31:00,59.4,46.4,30.08,West,259,0.0,0.0,62,0.00,-RA,OVC,0.00,WeatherDisplay:10.37,2013-06-26 09:31:00,
2013-06-26 03:36:00,59.2,46.2,30.08,West,259,0.0,0.0,62,0.00,-RA,OVC,0.00,WeatherDisplay:10.37,2013-06-26 09:36:00,
2013-06-26 03:41:00,59.0,45.6,30.08,West,259,0.0,0.0,61,0.00,-RA,OVC,0.00,WeatherDisplay:10.37,2013-06-26 09:41:00,
2013-06-26 03:46:00,58.8,45.8,30.08,West,259,0.0,0.0,62,0.00,-RA,OVC,0.00,WeatherDisplay:10.37,2013-06-26 09:46:00,
2013-06-26 03:51:00,58.6,45.6,30.08,West,259,0.0,0.0,62,0.00,-RA,OVC,0.00,WeatherDisplay:10.37,2013-06-26 09:51:00,
2013-06-26 03:56:00,58.5,45.1,30.08,West,259,0.0,0.0,61,0.00,-RA,OVC,0.00,WeatherDisplay:10.37,2013-06-26 09:56:00,
2013-06-26 04:01:00,58.5,45.1,30.08,West,259,0.0,0.0,61,0.00,-RA,OVC,0.00,WeatherDisplay:10.37,2013-06-26 10:01:00,
2013-06-26 04:06:00,58.4,44.6,30.08,West,259,0.0,0.0,60,0.00,-RA,OVC,0.00,WeatherDisplay:10.37,2013-06-26 10:06:00,
2013-06-26 04:11:00,58.5,44.2,30.08,West,259,0.0,0.0,59,0.00,-RA,OVC,0.00,WeatherDisplay:10.37,2013-06-26 10:11:00,
2013-06-26 04:16:00,58.4,44.6,30.08,West,259,0.0,0.0,60,0.00,-RA,OVC,0.00,WeatherDisplay:10.37,2013-06-26 10:16:00,
2013-06-26 04:21:00,58.3,44.5,30.08,West,259,0.0,0.0,60,0.00,-RA,OVC,0.00,WeatherDisplay:10.37,2013-06-26 10:21:00,
2013-06-26 04:26:00,58.2,44.4,30.08,West,259,0.0,0.0,60,0.00,-RA,OVC,0.00,WeatherDisplay:10.37,2013-06-26 10:26:00,
2013-06-26 04:31:00,58.1,45.6,30.08,West,259,0.0,0.0,63,0.00,-RA,OVC,0.00,WeatherDisplay:10.37,2013-06-26 10:31:00,
2013-06-26 04:36:00,58.0,45.5,30.08,West,259,0.0,0.0,63,0.00,-RA,OVC,0.00,WeatherDisplay:10.37,2013-06-26 10:36:00,
2013-06-26 04:41:00,58.1,45.6,30.08,West,259,0.0,0.0,63,0.00,-RA,OVC,0.00,WeatherDisplay:10.37,2013-06-26 10:41:00,
2013-06-26 04:46:00,58.3,45.8,30.08,West,259,0.0,0.0,63,0.00,-RA,OVC,0.00,WeatherDisplay:10.37,2013-06-26 10:46:00,
2013-06-26 04:51:00,58.4,44.6,30.08,West,259,0.0,0.0,60,0.00,-RA,OVC,0.00,WeatherDisplay:10.37,2013-06-26 10:51:00,
2013-06-26 04:56:00,58.4,44.6,30.08,West,259,0.0,0.0,60,0.00,-RA,OVC,0.00,WeatherDisplay:10.37,2013-06-26 10:56:00,
2013-06-26 05:01:00,58.4,44.6,30.08,West,259,0.0,0.0,60,0.00,-RA,OVC,0.00,WeatherDisplay:10.37,2013-06-26 11:01:00,
2013-06-26 05:06:00,58.4,44.6,30.08,West,259,0.0,0.0,60,0.00,-RA,OVC,0.00,WeatherDisplay:10.37,2013-06-26 11:06:00,
2013-06-26 05:11:00,58.2,43.9,30.08,West,259,0.0,0.0,59,0.00,-RA,OVC,0.00,WeatherDisplay:10.37,2013-06-26 11:11:00,
2013-06-26 05:17:00,58.1,43.8,30.08,West,259,0.0,0.0,59,0.00,-RA,OVC,0.00,WeatherDisplay:10.37,2013-06-26 11:17:00,
2013-06-26 05:22:00,58.1,42.0,30.08,West,267,0.0,0.0,55,0.00,-RA,OVC,0.00,WeatherDisplay:10.37,2013-06-26 11:22:00,
2013-06-26 05:27:00,58.1,41.5,30.08,West,267,0.0,0.0,54,0.00,-RA,OVC,0.00,WeatherDisplay:10.37,2013-06-26 11:27:00,
2013-06-26 05:32:00,58.3,41.2,30.08,West,267,0.0,0.0,53,0.00,-RA,OVC,0.00,WeatherDisplay:10.37,2013-06-26 11:32:00,
2013-06-26 05:37:00,58.6,42.0,30.08,West,267,0.0,0.1,54,0.00,-RA,OVC,0.00,WeatherDisplay:10.37,2013-06-26 11:37:00,
2013-06-26 05:42:00,58.9,42.3,30.08,West,267,1.1,1.1,54,0.00,-RA,OVC,0.00,WeatherDisplay:10.37,2013-06-26 11:42:00,
2013-06-26 05:47:00,59.0,42.4,30.08,West,267,0.0,0.0,54,0.00,-RA,OVC,0.00,WeatherDisplay:10.37,2013-06-26 11:47:00,
2013-06-26 05:52:00,59.1,42.5,30.08,West,267,0.0,0.0,54,0.00,-RA,OVC,0.00,WeatherDisplay:10.37,2013-06-26 11:52:00,
2013-06-26 05:57:00,59.3,41.7,30.08,West,267,1.1,0.0,52,0.00,-RA,OVC,0.00,WeatherDisplay:10.37,2013-06-26 11:57:00,
2013-06-26 06:02:00,59.5,42.3,30.08,West,267,0.0,0.0,53,0.00,-RA,OVC,0.00,WeatherDisplay:10.37,2013-06-26 12:02:00,
2013-06-26 06:07:00,59.5,41.9,30.08,West,267,0.0,0.0,52,0.00,-RA,OVC,0.00,WeatherDisplay:10.37,2013-06-26 12:07:00,
2013-06-26 06:12:00,59.4,42.3,30.08,West,267,0.0,0.0,53,0.00,-RA,OVC,0.00,WeatherDisplay:10.37,2013-06-26 12:12:00,
2013-06-26 06:17:00,59.3,42.6,30.08,West,267,0.0,0.0,54,0.00,-RA,OVC,0.00,WeatherDisplay:10.37,2013-06-26 12:17:00,
2013-06-26 06:22:00,59.1,42.5,30.08,West,267,0.0,0.0,54,0.00,-RA,OVC,0.00,WeatherDisplay:10.37,2013-06-26 12:22:00,
2013-06-26 06:27:00,59.0,43.8,30.08,West,267,0.0,0.0,57,0.00,-RA,OVC,0.00,WeatherDisplay:10.37,2013-06-26 12:27:00,
2013-06-26 06:32:00,58.9,43.7,30.08,West,267,0.0,0.0,57,0.00,-RA,OVC,0.00,WeatherDisplay:10.37,2013-06-26 12:32:00,
2013-06-26 06:37:00,59.0,44.7,30.08,West,267,0.0,0.1,59,0.00,-RA,OVC,0.00,WeatherDisplay:10.37,2013-06-26 12:37:00,
2013-06-26 06:42:00,59.2,44.4,30.08,West,267,0.0,0.0,58,0.00,-RA,OVC,0.00,WeatherDisplay:10.37,2013-06-26 12:42:00,
2013-06-26 06:47:00,59.4,43.7,30.08,West,267,0.0,0.0,56,0.00,-RA,OVC,0.00,WeatherDisplay:10.37,2013-06-26 12:47:00,
2013-06-26 06:52:00,59.7,43.5,30.08,West,267,1.1,0.0,55,0.00,-RA,OVC,0.00,WeatherDisplay:10.37,2013-06-26 12:52:00,
2013-06-26 06:57:00,60.6,46.6,30.08,West,267,0.0,0.0,60,0.00,-RA,OVC,0.00,WeatherDisplay:10.37,2013-06-26 12:57:00,
2013-06-26 07:02:00,61.7,48.1,30.08,West,267,0.0,0.0,61,0.00,-RA,OVC,0.00,WeatherDisplay:10.37,2013-06-26 13:02:00,
2013-06-26 07:07:00,62.9,46.0,30.11,West,267,1.1,0.0,54,0.00,-RA,OVC,0.00,WeatherDisplay:10.37,2013-06-26 13:07:00,
2013-06-26 07:12:00,63.8,45.3,30.11,West,267,0.0,0.0,51,0.00,-RA,OVC,0.00,WeatherDisplay:10.37,2013-06-26 13:12:00,
2013-06-26 07:17:00,64.5,44.9,30.11,WNW,282,1.1,1.1,49,0.00,-RA,OVC,0.00,WeatherDisplay:10.37,2013-06-26 13:17:00,
2013-06-26 07:22:00,65.2,45.5,30.11,WNW,282,1.1,0.0,49,0.00,-RA,OVC,0.00,WeatherDisplay:10.37,2013-06-26 13:22:00,
2013-06-26 07:27:00,66.1,45.8,30.11,WNW,282,1.1,1.1,48,0.00,-RA,OVC,0.00,WeatherDisplay:10.37,2013-06-26 13:27:00,
2013-06-26 07:32:00,67.0,44.9,30.11,WNW,282,1.1,1.1,45,0.00,-RA,OVC,0.00,WeatherDisplay:10.37,2013-06-26 13:32:00,
2013-06-26 07:37:00,67.8,46.3,30.11,WNW,282,0.0,0.0,46,0.00,-RA,OVC,0.00,WeatherDisplay:10.37,2013-06-26 13:37:00,
2013-06-26 07:42:00,68.8,45.4,30.11,WNW,282,0.0,0.0,43,0.00,-RA,OVC,0.00,WeatherDisplay:10.37,2013-06-26 13:42:00,
2013-06-26 07:47:00,70.0,45.8,30.11,SSE,167,1.1,0.0,42,0.00,-RA,OVC,0.00,WeatherDisplay:10.37,2013-06-26 13:47:00,
2013-06-26 07:52:00,70.7,45.8,30.11,SSE,167,0.0,0.2,41,0.00,-RA,OVC,0.00,WeatherDisplay:10.37,2013-06-26 13:52:00,
2013-06-26 07:57:00,71.7,44.7,30.11,SSE,167,0.0,0.0,38,0.00,-RA,OVC,0.00,WeatherDisplay:10.37,2013-06-26 13:57:00,
2013-06-26 08:02:00,72.7,44.9,30.11,SSE,167,0.0,0.0,37,0.00,-RA,OVC,0.00,WeatherDisplay:10.37,2013-06-26 14:02:00,
2013-06-26 08:07:00,73.8,43.7,30.14,SSE,167,0.0,0.0,34,0.00,-RA,OVC,0.00,WeatherDisplay:10.37,2013-06-26 14:07:00,
2013-06-26 08:12:00,74.8,43.8,30.14,SSE,167,0.0,0.0,33,0.00,-RA,OVC,0.00,WeatherDisplay:10.37,2013-06-26 14:12:00,
2013-06-26 08:17:00,75.7,46.1,30.14,SSE,167,0.0,0.6,35,0.00,-RA,OVC,0.00,WeatherDisplay:10.37,2013-06-26 14:17:00,
2013-06-26 08:22:00,76.2,45.8,30.14,SSE,167,1.1,0.0,34,0.00,-RA,OVC,0.00,WeatherDisplay:10.37,2013-06-26 14:22:00,
2013-06-26 08:27:00,76.6,44.5,30.14,SSE,165,1.1,1.1,32,0.00,-RA,OVC,0.00,WeatherDisplay:10.37,2013-06-26 14:27:00,
2013-06-26 08:32:00,76.9,44.0,30.14,SSE,165,0.0,0.0,31,0.00,-RA,OVC,0.00,WeatherDisplay:10.37,2013-06-26 14:32:00,
2013-06-26 08:37:00,77.5,44.5,30.14,SSE,168,1.1,1.1,31,0.00,-RA,OVC,0.00,WeatherDisplay:10.37,2013-06-26 14:37:00,
2013-06-26 08:42:00,78.2,45.9,30.14,SSE,168,0.0,0.0,32,0.00,-RA,OVC,0.00,WeatherDisplay:10.37,2013-06-26 14:42:00,
2013-06-26 08:47:00,78.8,46.4,30.14,SSE,168,1.1,0.0,32,0.00,-RA,OVC,0.00,WeatherDisplay:10.37,2013-06-26 14:47:00,
2013-06-26 08:52:00,79.3,45.2,30.14,South,180,2.3,2.3,30,0.00,-RA,OVC,0.00,WeatherDisplay:10.37,2013-06-26 14:52:00,
2013-06-26 08:57:00,79.4,43.4,30.14,South,180,1.1,1.1,28,0.00,-RA,OVC,0.00,WeatherDisplay:10.37,2013-06-26 14:57:00,
2013-06-26 09:02:00,79.5,43.5,30.14,South,180,1.1,1.1,28,0.00,-RA,OVC,0.00,WeatherDisplay:10.37,2013-06-26 15:02:00,
2013-06-26 09:07:00,79.3,45.2,30.14,South,180,1.1,1.1,30,0.00,-RA,OVC,0.00,WeatherDisplay:10.37,2013-06-26 15:07:00,
2013-06-26 09:12:00,79.5,44.5,30.14,South,180,2.0,2.0,29,0.00,-RA,OVC,0.00,WeatherDisplay:10.37,2013-06-26 15:12:00,
2013-06-26 09:17:00,79.6,44.5,30.14,South,180,1.1,1.1,29,0.00,-RA,OVC,0.00,WeatherDisplay:10.37,2013-06-26 15:17:00,
2013-06-26 09:22:00,79.8,44.7,30.14,South,180,2.3,0.0,29,0.00,-RA,OVC,0.00,WeatherDisplay:10.37,2013-06-26 15:22:00,
2013-06-26 09:27:00,79.7,43.7,30.14,South,174,0.0,0.6,28,0.00,-RA,OVC,0.00,WeatherDisplay:10.37,2013-06-26 15:27:00,
2013-06-26 09:32:00,80.2,44.1,30.14,South,175,1.1,0.0,28,0.00,-RA,OVC,0.00,WeatherDisplay:10.37,2013-06-26 15:32:00,
2013-06-26 09:37:00,80.6,44.5,30.14,South,175,2.3,0.0,28,0.00,-RA,OVC,0.00,WeatherDisplay:10.37,2013-06-26 15:37:00,
2013-06-26 09:42:00,81.1,43.9,30.14,South,175,1.1,0.0,27,0.00,-RA,OVC,0.00,WeatherDisplay:10.37,2013-06-26 15:42:00,
2013-06-26 09:47:00,81.5,44.3,30.14,South,176,2.3,2.3,27,0.00,-RA,OVC,0.00,WeatherDisplay:10.37,2013-06-26 15:47:00,
2013-06-26 09:52:00,81.9,45.6,30.14,West,267,3.5,3.5,28,0.00,-RA,OVC,0.00,WeatherDisplay:10.37,2013-06-26 15:52:00,
2013-06-26 09:57:00,82.2,46.8,30.14,West,278,2.3,2.3,29,0.00,-RA,OVC,0.00,WeatherDisplay:10.37,2013-06-26 15:57:00,
2013-06-26 10:02:00,82.2,43.9,30.14,WNW,286,1.1,1.1,26,0.00,-RA,OVC,0.00,WeatherDisplay:10.37,2013-06-26 16:02:00,
2013-06-26 10:07:00,82.6,45.2,30.14,WNW,288,1.1,1.1,27,0.00,-RA,OVC,0.00,WeatherDisplay:10.37,2013-06-26 16:07:00,
2013-06-26 10:12:00,83.0,43.5,30.14,WNW,293,2.3,2.3,25,0.00,-RA,OVC,0.00,WeatherDisplay:10.37,2013-06-26 16:12:00,
2013-06-26 10:17:00,83.3,45.8,30.13,WNW,294,1.1,1.1,27,0.00,-RA,OVC,0.00,WeatherDisplay:10.37,2013-06-26 16:17:00,
2013-06-26 10:22:00,84.0,44.4,30.13,WNW,302,3.5,3.5,25,0.00,-RA,OVC,0.00,WeatherDisplay:10.37,2013-06-26 16:22:00,
2013-06-26 10:27:00,84.5,43.7,30.13,NW,317,3.5,3.5,24,0.00,-RA,OVC,0.00,WeatherDisplay:10.37,2013-06-26 16:27:00,
2013-06-26 10:32:00,84.8,45.1,30.13,WNW,298,4.6,4.6,25,0.00,-RA,OVC,0.00,WeatherDisplay:10.37,2013-06-26 16:32:00,
2013-06-26 10:37:00,85.2,43.2,30.13,NW,326,1.1,1.8,23,0.00,-RA,OVC,0.00,WeatherDisplay:10.37,2013-06-26 16:37:00,
2013-06-26 10:42:00,85.6,43.5,30.13,WNW,302,3.5,3.5,23,0.00,-RA,OVC,0.00,WeatherDisplay:10.37,2013-06-26 16:42:00,
2013-06-26 10:47:00,86.1,46.2,30.13,West,277,3.5,3.5,25,0.00,-RA,OVC,0.00,WeatherDisplay:10.37,2013-06-26 16:47:00,
2013-06-26 10:52:00,87.1,44.8,30.13,WNW,284,3.5,3.5,23,0.00,-RA,OVC,0.00,WeatherDisplay:10.37,2013-06-26 16:52:00,
2013-06-26 10:57:00,87.8,41.7,30.13,NNW,327,4.6,4.6,20,0.00,-RA,OVC,0.00,WeatherDisplay:10.37,2013-06-26 16:57:00,
2013-06-26 11:02:00,88.2,40.7,30.13,NNW,331,3.5,3.5,19,0.00,-RA,OVC,0.00,WeatherDisplay:10.37,2013-06-26 17:02:00,
2013-06-26 11:07:00,88.7,39.7,30.13,North,360,6.9,6.9,18,0.00,-RA,OVC,0.00,WeatherDisplay:10.37,2013-06-26 17:07:00,
2013-06-26 11:12:00,88.8,39.8,30.13,North,355,4.6,4.6,18,0.00,-RA,OVC,0.00,WeatherDisplay:10.37,2013-06-26 17:12:00,
2013-06-26 11:17:00,89.1,41.5,30.11,North,5,3.5,3.5,19,0.00,-RA,OVC,0.00,WeatherDisplay:10.37,2013-06-26 17:17:00,
2013-06-26 11:22:00,89.5,40.4,30.11,North,360,3.5,3.5,18,0.00,-RA,OVC,0.00,WeatherDisplay:10.37,2013-06-26 17:22:00,
2013-06-26 11:27:00,89.5,41.8,30.11,WNW,299,6.9,6.9,19,0.00,-RA,OVC,0.00,WeatherDisplay:10.37,2013-06-26 17:27:00,
2013-06-26 11:32:00,89.3,40.2,30.11,NNW,339,1.1,1.1,18,0.00,-RA,OVC,0.00,WeatherDisplay:10.37,2013-06-26 17:32:00,
2013-06-26 11:37:00,89.6,40.5,30.11,WNW,286,3.5,3.5,18,0.00,-RA,OVC,0.00,WeatherDisplay:10.37,2013-06-26 17:37:00,
2013-06-26 11:42:00,89.9,40.7,30.11,West,278,3.5,3.5,18,0.00,-RA,OVC,0.00,WeatherDisplay:10.37,2013-06-26 17:42:00,
2013-06-26 11:47:00,89.8,39.2,30.11,West,267,3.5,3.5,17,0.00,-RA,OVC,0.00,WeatherDisplay:10.37,2013-06-26 17:47:00,
2013-06-26 11:52:00,89.6,40.5,30.11,WSW,242,1.1,1.1,18,0.00,-RA,OVC,0.00,WeatherDisplay:10.37,2013-06-26 17:52:00,
2013-06-26 11:57:00,90.0,37.8,30.11,NNW,327,1.1,1.1,16,0.00,-RA,OVC,0.00,WeatherDisplay:10.37,2013-06-26 17:57:00,
2013-06-26 12:02:00,90.4,41.1,30.11,NNW,345,2.3,2.3,18,0.00,-RA,OVC,0.00,WeatherDisplay:10.37,2013-06-26 18:02:00,
2013-06-26 12:07:00,91.1,40.2,30.11,NNW,329,8.0,8.0,17,0.00,-RA,OVC,0.00,WeatherDisplay:10.37,2013-06-26 18:07:00,
2013-06-26 12:12:00,91.2,43.2,30.11,West,266,1.1,1.1,19,0.00,-RA,OVC,0.00,WeatherDisplay:10.37,2013-06-26 18:12:00,
2013-06-26 12:17:00,91.4,41.9,30.11,NW,326,3.5,3.5,18,0.00,-RA,OVC,0.00,WeatherDisplay:10.37,2013-06-26 18:17:00,
2013-06-26 12:22:00,91.4,40.5,30.11,West,276,3.5,3.5,17,0.00,-RA,OVC,0.00,WeatherDisplay:10.37,2013-06-26 18:22:00,
2013-06-26 12:27:00,91.7,40.7,30.11,WNW,298,4.6,4.6,17,0.00,-RA,OVC,0.00,WeatherDisplay:10.37,2013-06-26 18:27:00,
2013-06-26 12:32:00,92.1,43.9,30.11,West,272,1.1,1.3,19,0.00,-RA,OVC,0.00,WeatherDisplay:10.37,2013-06-26 18:32:00,
2013-06-26 12:37:00,92.6,38.2,30.11,West,271,1.1,1.1,15,0.00,-RA,OVC,0.00,WeatherDisplay:10.37,2013-06-26 18:37:00,
2013-06-26 12:42:00,93.0,41.7,30.11,West,271,2.3,2.3,17,0.00,-RA,OVC,0.00,WeatherDisplay:10.37,2013-06-26 18:42:00,
2013-06-26 12:47:00,93.3,40.4,30.11,West,267,3.5,3.5,16,0.00,-RA,OVC,0.00,WeatherDisplay:10.37,2013-06-26 18:47:00,
2013-06-26 12:52:00,92.9,40.1,30.11,WSW,247,1.1,1.1,16,0.00,-RA,OVC,0.00,WeatherDisplay:10.37,2013-06-26 18:52:00,
2013-06-26 12:57:00,92.7,39.9,30.11,WSW,245,2.3,2.3,16,0.00,-RA,OVC,0.00,WeatherDisplay:10.37,2013-06-26 18:57:00,
2013-06-26 13:02:00,93.0,40.2,30.11,WSW,242,2.3,2.3,16,0.00,-RA,OVC,0.00,WeatherDisplay:10.37,2013-06-26 19:02:00,
2013-06-26 13:07:00,93.5,42.1,30.11,West,277,5.8,5.8,17,0.00,-RA,OVC,0.00,WeatherDisplay:10.37,2013-06-26 19:07:00,
2013-06-26 13:12:00,93.5,42.1,30.11,SW,217,1.1,1.1,17,0.00,-RA,OVC,0.00,WeatherDisplay:10.37,2013-06-26 19:12:00,
2013-06-26 13:17:00,94.1,41.1,30.10,NNW,343,5.8,5.8,16,0.00,-RA,OVC,0.00,WeatherDisplay:10.37,2013-06-26 19:17:00,
2013-06-26 13:22:00,94.4,39.6,30.10,North,355,3.5,3.5,15,0.00,-RA,OVC,0.00,WeatherDisplay:10.37,2013-06-26 19:22:00,
2013-06-26 13:27:00,94.2,41.1,30.10,NE,49,1.1,0.0,16,0.00,-RA,OVC,0.00,WeatherDisplay:10.37,2013-06-26 19:27:00,
2013-06-26 13:32:00,94.4,39.6,30.10,West,264,3.5,3.5,15,0.00,-RA,OVC,0.00,WeatherDisplay:10.37,2013-06-26 19:32:00,
2013-06-26 13:37:00,94.4,41.3,30.10,West,265,4.6,4.6,16,0.00,-RA,OVC,0.00,WeatherDisplay:10.37,2013-06-26 19:37:00,
2013-06-26 13:42:00,94.3,41.2,30.10,WNW,294,3.5,3.5,16,0.00,-RA,OVC,0.00,WeatherDisplay:10.37,2013-06-26 19:42:00,
2013-06-26 13:47:00,94.3,41.2,30.10,NW,304,3.5,3.5,16,0.00,-RA,OVC,0.00,WeatherDisplay:10.37,2013-06-26 19:47:00,
2013-06-26 13:52:00,94.6,41.5,30.10,WNW,289,0.0,0.0,16,0.00,-RA,OVC,0.00,WeatherDisplay:10.37,2013-06-26 19:52:00,
2013-06-26 13:57:00,95.3,43.6,30.10,North,9,10.4,10.4,17,0.00,-RA,OVC,0.00,WeatherDisplay:10.37,2013-06-26 19:57:00,
2013-06-26 14:02:00,95.1,40.2,30.10,West,265,4.0,4.0,15,0.00,-RA,OVC,0.00,WeatherDisplay:10.37,2013-06-26 20:02:00,
2013-06-26 14:07:00,95.0,40.1,30.10,West,271,6.9,6.9,15,0.00,-RA,OVC,0.00,WeatherDisplay:10.37,2013-06-26 20:07:00,
2013-06-26 14:12:00,94.8,39.9,30.10,West,267,3.5,3.5,15,0.00,-RA,OVC,0.00,WeatherDisplay:10.37,2013-06-26 20:12:00,
2013-06-26 14:17:00,94.9,40.0,30.10,SSW,202,2.3,2.3,15,0.00,-RA,OVC,0.00,WeatherDisplay:10.37,2013-06-26 20:17:00,
2013-06-26 14:22:00,94.7,39.9,30.10,North,355,9.2,9.2,15,0.00,-RA,OVC,0.00,WeatherDisplay:10.37,2013-06-26 20:22:00,
2013-06-26 14:27:00,94.4,39.6,30.10,SSW,196,5.8,5.8,15,0.00,-RA,OVC,0.00,WeatherDisplay:10.37,2013-06-26 20:27:00,
2013-06-26 14:32:00,94.3,39.5,30.10,West,275,3.5,3.5,15,0.00,-RA,OVC,0.00,WeatherDisplay:10.37,2013-06-26 20:32:00,
2013-06-26 14:37:00,94.5,39.7,30.10,NW,326,2.3,2.3,15,0.00,-RA,OVC,0.00,WeatherDisplay:10.37,2013-06-26 20:37:00,
2013-06-26 14:42:00,94.6,41.5,30.10,NNW,348,2.3,2.3,16,0.00,-RA,OVC,0.00,WeatherDisplay:10.37,2013-06-26 20:42:00,
2013-06-26 14:47:00,94.9,41.7,30.10,NNW,336,3.0,3.0,16,0.00,-RA,OVC,0.00,WeatherDisplay:10.37,2013-06-26 20:47:00,
2013-06-26 14:52:00,95.3,40.3,30.10,NW,306,1.1,1.1,15,0.00,-RA,OVC,0.00,WeatherDisplay:10.37,2013-06-26 20:52:00,
2013-06-26 14:57:00,96.2,41.1,30.10,West,266,4.6,4.6,15,0.00,-RA,OVC,0.00,WeatherDisplay:10.37,2013-06-26 20:57:00,
2013-06-26 15:02:00,96.0,40.9,30.10,West,276,3.5,3.5,15,0.00,-RA,OVC,0.00,WeatherDisplay:10.37,2013-06-26 21:02:00,
2013-06-26 15:07:00,95.6,40.6,30.10,WSW,248,1.1,1.1,15,0.00,-RA,OVC,0.00,WeatherDisplay:10.37,2013-06-26 21:07:00,
2013-06-26 15:12:00,95.9,39.0,30.10,West,261,4.6,4.6,14,0.00,-RA,OVC,0.00,WeatherDisplay:10.37,2013-06-26 21:12:00,
2013-06-26 15:17:00,95.8,39.0,30.10,West,261,4.6,4.6,14,0.00,-RA,OVC,0.00,WeatherDisplay:10.37,2013-06-26 21:17:00,
2013-06-26 15:22:00,95.7,42.3,30.10,West,265,1.1,1.1,16,0.00,-RA,OVC,0.00,WeatherDisplay:10.37,2013-06-26 21:22:00,
2013-06-26 15:27:00,96.0,40.9,30.10,NW,325,6.9,6.9,15,0.00,-RA,OVC,0.00,WeatherDisplay:10.37,2013-06-26 21:27:00,
2013-06-26 15:32:00,95.7,38.9,30.10,West,269,3.5,3.5,14,0.00,-RA,OVC,0.00,WeatherDisplay:10.37,2013-06-26 21:32:00,
2013-06-26 15:37:00,95.4,40.4,30.10,West,264,3.5,3.5,15,0.00,-RA,OVC,0.00,WeatherDisplay:10.37,2013-06-26 21:37:00,
2013-06-26 15:42:00,95.3,40.3,30.10,WNW,294,9.2,9.2,15,0.00,-RA,OVC,0.00,WeatherDisplay:10.37,2013-06-26 21:42:00,
2013-06-26 15:47:00,95.2,40.3,30.10,West,270,3.5,3.5,15,0.00,-RA,OVC,0.00,WeatherDisplay:10.37,2013-06-26 21:47:00,
2013-06-26 15:52:00,95.6,40.6,30.10,SSW,209,4.6,4.6,15,0.00,-RA,OVC,0.00,WeatherDisplay:10.37,2013-06-26 21:52:00,
2013-06-26 15:57:00,95.9,40.8,30.10,SSW,209,3.5,3.5,15,0.00,-RA,OVC,0.00,WeatherDisplay:10.37,2013-06-26 21:57:00,
2013-06-26 16:02:00,96.0,39.1,30.10,WSW,249,3.5,3.5,14,0.00,-RA,OVC,0.00,WeatherDisplay:10.37,2013-06-26 22:02:00,
2013-06-26 16:07:00,96.1,41.0,30.10,West,277,4.6,4.6,15,0.00,-RA,OVC,0.00,WeatherDisplay:10.37,2013-06-26 22:07:00,
2013-06-26 16:12:00,96.1,41.0,30.10,West,269,3.5,3.5,15,0.00,-RA,OVC,0.00,WeatherDisplay:10.37,2013-06-26 22:12:00,
2013-06-26 16:17:00,95.9,40.8,30.10,WNW,290,4.6,4.6,15,0.00,-RA,OVC,0.00,WeatherDisplay:10.37,2013-06-26 22:17:00,
2013-06-26 16:22:00,96.1,41.0,30.10,WNW,284,3.5,3.5,15,0.00,-RA,OVC,0.00,WeatherDisplay:10.37,2013-06-26 22:22:00,
2013-06-26 16:27:00,95.9,39.0,30.10,WSW,252,4.6,4.6,14,0.00,-RA,OVC,0.00,WeatherDisplay:10.37,2013-06-26 22:27:00,
2013-06-26 16:32:00,95.8,40.7,30.10,West,265,1.1,1.1,15,0.00,-RA,OVC,0.00,WeatherDisplay:10.37,2013-06-26 22:32:00,
2013-06-26 16:37:00,95.9,40.8,30.10,West,267,6.9,6.9,15,0.00,-RA,OVC,0.00,WeatherDisplay:10.37,2013-06-26 22:37:00,
2013-06-26 16:42:00,95.9,42.5,30.10,West,275,2.3,2.3,16,0.00,-RA,OVC,0.00,WeatherDisplay:10.37,2013-06-26 22:42:00,
2013-06-26 16:47:00,95.9,39.0,30.10,WNW,295,4.6,4.6,14,0.00,-RA,OVC,0.00,WeatherDisplay:10.37,2013-06-26 22:47:00,
2013-06-26 16:52:00,95.7,40.7,30.10,NW,323,1.1,1.1,15,0.00,-RA,OVC,0.00,WeatherDisplay:10.37,2013-06-26 22:52:00,
2013-06-26 16:57:00,96.2,39.3,30.10,NW,323,2.3,2.3,14,0.00,-RA,OVC,0.00,WeatherDisplay:10.37,2013-06-26 22:57:00,
2013-06-26 17:02:00,96.9,41.6,30.10,WNW,296,5.8,5.8,15,0.00,-RA,OVC,0.00,WeatherDisplay:10.37,2013-06-26 23:02:00,
2013-06-26 17:07:00,96.8,41.5,30.10,West,275,3.5,3.5,15,0.00,-RA,OVC,0.00,WeatherDisplay:10.37,2013-06-26 23:07:00,
2013-06-26 17:12:00,96.6,41.4,30.05,West,275,1.1,1.1,15,0.00,-RA,OVC,0.00,WeatherDisplay:10.37,2013-06-26 23:12:00,
2013-06-26 17:17:00,96.6,41.4,30.05,West,271,3.5,3.5,15,0.00,-RA,OVC,0.00,WeatherDisplay:10.37,2013-06-26 23:17:00,
2013-06-26 17:22:00,96.7,43.1,30.05,West,271,4.0,4.0,16,0.00,-RA,OVC,0.00,WeatherDisplay:10.37,2013-06-26 23:22:00,
2013-06-26 17:27:00,96.8,41.5,30.05,West,267,1.1,1.1,15,0.00,-RA,OVC,0.00,WeatherDisplay:10.37,2013-06-26 23:27:00,
2013-06-26 17:32:00,97.0,39.9,30.05,West,267,1.1,1.1,14,0.00,-RA,OVC,0.00,WeatherDisplay:10.37,2013-06-26 23:32:00,
2013-06-26 17:37:00,97.4,40.2,30.05,West,267,1.1,1.1,14,0.00,-RA,OVC,0.00,WeatherDisplay:10.37,2013-06-26 23:37:00,
2013-06-26 17:42:00,97.7,42.2,30.05,West,280,5.0,5.0,15,0.00,-RA,OVC,0.00,WeatherDisplay:10.37,2013-06-26 23:42:00,
2013-06-26 17:47:00,97.7,40.5,30.05,West,280,3.5,3.5,14,0.00,-RA,OVC,0.00,WeatherDisplay:10.37,2013-06-26 23:47:00,
2013-06-26 17:52:00,97.2,41.8,30.05,West,280,2.3,2.3,15,0.00,-RA,OVC,0.00,WeatherDisplay:10.37,2013-06-26 23:52:00,
2013-06-26 17:57:00,97.1,40.0,30.05,West,280,1.1,1.1,14,0.00,-RA,OVC,0.00,WeatherDisplay:10.37,2013-06-26 23:57:00,
2013-06-26 18:02:00,97.1,40.0,30.05,West,280,3.5,3.5,14,0.00,-RA,OVC,0.00,WeatherDisplay:10.37,2013-06-27 00:02:00,
2013-06-26 18:07:00,96.9,39.8,30.05,West,274,2.3,2.3,14,0.00,-RA,OVC,0.00,WeatherDisplay:10.37,2013-06-27 00:07:00,
2013-06-26 18:12:00,96.6,41.4,30.06,West,274,1.1,1.1,15,0.00,-RA,OVC,0.00,WeatherDisplay:10.37,2013-06-27 00:12:00,
2013-06-26 18:17:00,96.5,41.3,30.06,West,274,2.3,2.3,15,0.00,-RA,OVC,0.00,WeatherDisplay:10.37,2013-06-27 00:17:00,
2013-06-26 18:22:00,96.2,41.1,30.06,West,271,3.5,3.5,15,0.00,-RA,OVC,0.00,WeatherDisplay:10.37,2013-06-27 00:22:00,
2013-06-26 18:27:00,96.1,41.0,30.06,West,271,1.1,1.1,15,0.00,-RA,OVC,0.00,WeatherDisplay:10.37,2013-06-27 00:27:00,
2013-06-26 18:32:00,96.1,41.0,30.06,West,271,2.3,2.3,15,0.00,-RA,OVC,0.00,WeatherDisplay:10.37,2013-06-27 00:32:00,
2013-06-26 18:37:00,96.2,42.7,30.06,West,271,2.3,2.3,16,0.00,-RA,OVC,0.00,WeatherDisplay:10.37,2013-06-27 00:37:00,
2013-06-26 18:42:00,96.1,42.6,30.06,West,271,1.1,0.0,16,0.00,-RA,OVC,0.00,WeatherDisplay:10.37,2013-06-27 00:42:00,
2013-06-26 18:47:00,95.9,42.5,30.06,West,271,1.1,1.1,16,0.00,-RA,OVC,0.00,WeatherDisplay:10.37,2013-06-27 00:47:00,
2013-06-26 18:52:00,95.5,42.2,30.06,West,271,3.5,3.5,16,0.00,-RA,OVC,0.00,WeatherDisplay:10.37,2013-06-27 00:52:00,
2013-06-26 18:57:00,95.2,41.9,30.06,West,271,1.1,1.1,16,0.00,-RA,OVC,0.00,WeatherDisplay:10.37,2013-06-27 00:57:00,
2013-06-26 19:02:00,94.9,41.7,30.06,West,271,1.1,1.1,16,0.00,-RA,OVC,0.00,WeatherDisplay:10.37,2013-06-27 01:02:00,
2013-06-26 19:07:00,94.8,41.6,30.06,West,271,1.1,1.1,16,0.00,-RA,OVC,0.00,WeatherDisplay:10.37,2013-06-27 01:07:00,
2013-06-26 19:12:00,94.6,41.5,30.06,West,271,1.1,1.1,16,0.00,-RA,OVC,0.00,WeatherDisplay:10.37,2013-06-27 01:12:00,
2013-06-26 19:17:00,94.3,39.5,30.07,West,269,3.5,3.5,15,0.00,-RA,OVC,0.00,WeatherDisplay:10.37,2013-06-27 01:17:00,
2013-06-26 19:22:00,93.8,40.8,30.07,West,269,3.5,3.5,16,0.00,-RA,OVC,0.00,WeatherDisplay:10.37,2013-06-27 01:22:00,
2013-06-26 19:27:00,93.3,40.4,30.07,West,269,2.3,2.3,16,0.00,-RA,OVC,0.00,WeatherDisplay:10.37,2013-06-27 01:27:00,
2013-06-26 19:32:00,92.8,40.0,30.07,West,271,3.5,3.5,16,0.00,-RA,OVC,0.00,WeatherDisplay:10.37,2013-06-27 01:32:00,
2013-06-26 19:37:00,92.3,39.6,30.07,West,274,4.6,4.6,16,0.00,-RA,OVC,0.00,WeatherDisplay:10.37,2013-06-27 01:37:00,
2013-06-26 19:42:00,91.8,40.8,30.07,West,271,2.0,2.0,17,0.00,-RA,OVC,0.00,WeatherDisplay:10.37,2013-06-27 01:42:00,
2013-06-26 19:47:00,91.3,38.8,30.07,West,271,3.5,3.5,16,0.00,-RA,OVC,0.00,WeatherDisplay:10.37,2013-06-27 01:47:00,
2013-06-26 19:52:00,90.9,40.1,30.07,West,271,2.3,2.3,17,0.00,-RA,OVC,0.00,WeatherDisplay:10.37,2013-06-27 01:52:00,
2013-06-26 19:57:00,90.5,39.7,30.07,West,270,4.6,4.6,17,0.00,-RA,OVC,0.00,WeatherDisplay:10.37,2013-06-27 01:57:00,
2013-06-26 20:02:00,90.2,39.5,30.07,West,271,3.5,3.5,17,0.00,-RA,OVC,0.00,WeatherDisplay:10.37,2013-06-27 02:02:00,
2013-06-26 20:07:00,89.9,39.2,30.07,West,271,2.3,2.3,17,0.00,-RA,OVC,0.00,WeatherDisplay:10.37,2013-06-27 02:07:00,
2013-06-26 20:12:00,89.5,38.9,30.07,West,271,3.5,3.5,17,0.00,-RA,OVC,0.00,WeatherDisplay:10.37,2013-06-27 02:12:00,
2013-06-26 20:17:00,89.2,38.7,30.07,West,273,4.6,4.6,17,0.00,-RA,OVC,0.00,WeatherDisplay:10.37,2013-06-27 02:17:00,
2013-06-26 20:22:00,88.9,38.4,30.07,West,269,3.5,3.5,17,0.00,-RA,OVC,0.00,WeatherDisplay:10.37,2013-06-27 02:22:00,
2013-06-26 20:27:00,88.7,39.7,30.08,West,269,2.3,2.3,18,0.00,-RA,OVC,0.00,WeatherDisplay:10.37,2013-06-27 02:27:00,
2013-06-26 20:32:00,88.4,39.5,30.08,West,269,0.0,0.0,18,0.00,-RA,OVC,0.00,WeatherDisplay:10.37,2013-06-27 02:32:00,
2013-06-26 20:37:00,88.1,39.3,30.08,West,269,0.0,0.0,18,0.00,-RA,OVC,0.00,WeatherDisplay:10.37,2013-06-27 02:37:00,
2013-06-26 20:42:00,87.7,40.3,30.08,West,269,0.0,0.7,19,0.00,-RA,OVC,0.00,WeatherDisplay:10.37,2013-06-27 02:42:00,
2013-06-26 20:47:00,87.3,40.0,30.08,West,269,1.1,1.1,19,0.00,-RA,OVC,0.00,WeatherDisplay:10.37,2013-06-27 02:47:00,
2013-06-26 20:52:00,87.0,42.3,30.08,West,269,0.0,0.0,21,0.00,-RA,OVC,0.00,WeatherDisplay:10.37,2013-06-27 02:52:00,
2013-06-26 20:57:00,86.6,42.0,30.08,West,269,0.0,0.2,21,0.00,-RA,OVC,0.00,WeatherDisplay:10.37,2013-06-27 02:57:00,
2013-06-26 21:02:00,86.1,41.6,30.08,West,269,0.0,0.0,21,0.00,-RA,OVC,0.00,WeatherDisplay:10.37,2013-06-27 03:02:00,
2013-06-26 21:07:00,85.6,42.4,30.08,West,269,0.0,0.1,22,0.00,-RA,OVC,0.00,WeatherDisplay:10.37,2013-06-27 03:07:00,
2013-06-26 21:12:00,85.0,40.7,30.08,West,269,1.0,0.0,21,0.00,-RA,OVC,0.00,WeatherDisplay:10.37,2013-06-27 03:12:00,
2013-06-26 21:17:00,84.6,41.6,30.08,West,269,0.0,0.0,22,0.00,-RA,OVC,0.00,WeatherDisplay:10.37,2013-06-27 03:17:00,
2013-06-26 21:22:00,84.0,44.4,30.08,West,269,0.0,0.0,25,0.00,-RA,OVC,0.00,WeatherDisplay:10.37,2013-06-27 03:22:00,
2013-06-26 21:27:00,83.4,42.8,30.08,West,269,0.0,0.0,24,0.00,-RA,OVC,0.00,WeatherDisplay:10.37,2013-06-27 03:27:00,
2013-06-26 21:32:00,82.9,44.5,30.08,West,269,0.0,0.0,26,0.00,-RA,OVC,0.00,WeatherDisplay:10.37,2013-06-27 03:32:00,
2013-06-26 21:37:00,82.3,43.0,30.08,West,269,0.0,0.0,25,0.00,-RA,OVC,0.00,WeatherDisplay:10.37,2013-06-27 03:37:00,
2013-06-26 21:42:00,81.8,44.5,30.08,West,269,0.0,0.0,27,0.00,-RA,OVC,0.00,WeatherDisplay:10.37,2013-06-27 03:42:00,
2013-06-26 21:47:00,81.2,44.0,30.08,West,269,0.0,0.0,27,0.00,-RA,OVC,0.00,WeatherDisplay:10.37,2013-06-27 03:47:00,
2013-06-26 21:52:00,80.7,42.6,30.08,West,269,0.0,0.0,26,0.00,-RA,OVC,0.00,WeatherDisplay:10.37,2013-06-27 03:52:00,
2013-06-26 21:57:00,80.7,41.6,30.08,WSW,244,3.5,3.5,25,0.00,-RA,OVC,0.00,WeatherDisplay:10.37,2013-06-27 03:57:00,
2013-06-26 22:01:00,80.9,41.8,30.08,WSW,244,1.1,1.1,25,0.00,-RA,OVC,0.00,WeatherDisplay:10.37,2013-06-27 04:01:00,
2013-06-26 22:06:00,81.0,41.9,30.08,WSW,243,1.1,1.4,25,0.00,-RA,OVC,0.00,WeatherDisplay:10.37,2013-06-27 04:06:00,
2013-06-26 22:11:00,81.2,42.0,30.08,WSW,243,2.3,0.0,25,0.00,-RA,OVC,0.00,WeatherDisplay:10.37,2013-06-27 04:11:00,
2013-06-26 22:16:00,81.1,41.9,30.08,WSW,243,1.1,1.1,25,0.00,-RA,OVC,0.00,WeatherDisplay:10.37,2013-06-27 04:16:00,
2013-06-26 22:21:00,81.1,41.9,30.08,WSW,242,1.1,0.0,25,0.00,-RA,OVC,0.00,WeatherDisplay:10.37,2013-06-27 04:21:00,
2013-06-26 22:26:00,80.9,41.8,30.12,WSW,242,1.1,1.1,25,0.00,-RA,OVC,0.00,WeatherDisplay:10.37,2013-06-27 04:26:00,
2013-06-26 22:31:00,80.8,41.7,30.12,SW,221,1.1,1.1,25,0.00,-RA,OVC,0.00,WeatherDisplay:10.37,2013-06-27 04:31:00,
2013-06-26 22:36:00,80.8,41.7,30.12,SW,221,2.3,2.3,25,0.00,-RA,OVC,0.00,WeatherDisplay:10.37,2013-06-27 04:36:00,
2013-06-26 22:41:00,80.7,40.5,30.12,SSW,212,2.3,2.3,24,0.00,-RA,OVC,0.00,WeatherDisplay:10.37,2013-06-27 04:41:00,
2013-06-26 22:46:00,80.7,40.5,30.12,SSW,212,1.1,1.1,24,0.00,-RA,OVC,0.00,WeatherDisplay:10.37,2013-06-27 04:46:00,
2013-06-26 22:51:00,80.5,41.4,30.12,SSW,212,2.3,0.0,25,0.00,-RA,OVC,0.00,WeatherDisplay:10.37,2013-06-27 04:51:00,
2013-06-26 22:56:00,80.2,41.2,30.12,SSW,212,0.0,0.0,25,0.00,-RA,OVC,0.00,WeatherDisplay:10.37,2013-06-27 04:56:00,
2013-06-26 23:01:00,79.8,41.9,30.12,SSW,212,0.0,0.0,26,0.00,-RA,OVC,0.00,WeatherDisplay:10.37,2013-06-27 05:01:00,
2013-06-26 23:06:00,79.1,43.2,30.12,SSW,212,0.0,0.0,28,0.00,-RA,OVC,0.00,WeatherDisplay:10.37,2013-06-27 05:06:00,
2013-06-26 23:11:00,78.3,42.5,30.12,SSW,212,0.0,0.0,28,0.00,-RA,OVC,0.00,WeatherDisplay:10.37,2013-06-27 05:11:00,
2013-06-26 23:16:00,77.6,43.7,30.12,SSW,212,0.0,0.0,30,0.00,-RA,OVC,0.00,WeatherDisplay:10.37,2013-06-27 05:16:00,
2013-06-26 23:21:00,76.9,42.2,30.12,SSW,212,0.0,0.0,29,0.00,-RA,OVC,0.00,WeatherDisplay:10.37,2013-06-27 05:21:00,
2013-06-26 23:26:00,76.3,43.4,30.12,SSW,212,0.0,0.0,31,0.00,-RA,OVC,0.00,WeatherDisplay:10.37,2013-06-27 05:26:00,
2013-06-26 23:31:00,75.9,44.7,30.12,SSW,212,1.1,0.0,33,0.00,-RA,OVC,0.00,WeatherDisplay:10.37,2013-06-27 05:31:00,
2013-06-26 23:36:00,75.6,42.0,30.12,SSW,212,0.0,0.1,30,0.00,-RA,OVC,0.00,WeatherDisplay:10.37,2013-06-27 05:36:00,
2013-06-26 23:41:00,76.0,41.4,30.12,SSW,212,1.1,1.1,29,0.00,-RA,OVC,0.00,WeatherDisplay:10.37,2013-06-27 05:41:00,
2013-06-26 23:46:00,76.1,40.6,30.12,SSW,212,1.1,1.1,28,0.00,-RA,OVC,0.00,WeatherDisplay:10.37,2013-06-27 05:46:00,
2013-06-26 23:51:00,76.3,41.7,30.12,SSW,212,0.0,0.2,29,0.00,-RA,OVC,0.00,WeatherDisplay:10.37,2013-06-27 05:51:00,
2013-06-26 23:56:00,76.4,40.9,30.12,SSW,212,0.0,0.1,28,0.00,-RA,OVC,0.00,WeatherDisplay:10.37,2013-06-27 05:56:00,